Theta_e
323 325 326 328 329 332 334 336 336 340 337 332 333 335 335 337 335 336 333 331 330 329 333 331 330 332 329 328 328 329 329 329 329 328 328 332 337 336 336 337 336 334 333
321 323 325 328 328 330 333 336 337 338 337 336 339 337 337 336 336 337 335 333 331 332 332 331 330 330 330 330 328 331 328 325 329 326 327 320 325 330 332 333 332 332 333
320 322 323 326 327 329 332 334 336 337 339 340 338 338 337 334 335 335 333 331 333 333 333 333 331 330 332 330 329 329 327 325 328 330 327 319 317 324 330 330 330 331 331
322 322 323 325 327 326 331 334 336 337 337 339 337 335 331 329 333 334 334 330 333 332 332 332 332 332 332 329 329 330 327 326 324 330 331 331 326 319 319 327 329 330 329
322 321 323 325 325 328 330 334 336 337 339 340 338 335 334 333 334 332 332 331 328 332 332 332 332 331 331 331 330 330 329 330 328 329 330 328 327 326 322 319 323 328 330
322 323 325 326 325 326 328 334 336 336 339 340 337 337 332 332 331 329 330 331 332 330 333 332 333 333 332 334 336 333 331 332 331 332 329 327 324 323 321 320 321 323 327
321 322 322 322 323 323 327 330 333 332 335 336 335 335 334 331 332 330 327 329 329 329 331 332 333 335 333 335 336 334 331 332 332 331 330 330 329 327 325 322 320 319 320
321 322 322 322 322 323 326 328 331 330 332 333 335 337 333 331 332 330 329 329 331 331 333 333 334 335 334 334 334 332 333 332 331 330 330 329 328 328 327 323 319 317 318
321 322 323 323 323 324 327 330 331 331 332 332 336 336 334 334 334 334 332 327 333 333 333 333 334 334 334 332 332 331 332 333 331 331 329 328 328 327 326 325 324 320 315
320 321 322 323 324 325 328 332 332 330 331 333 334 333 331 336 335 336 334 328 332 333 331 332 332 333 333 333 334 333 333 332 328 329 328 327 327 326 327 326 325 324 321
319 321 321 324 323 323 324 329 330 328 329 331 332 335 335 335 333 333 332 327 330 332 331 330 333 332 332 331 333 331 331 329 329 328 324 325 326 326 326 327 326 325 324
320 320 321 323 320 321 324 326 330 325 327 329 330 333 335 334 334 332 333 328 329 332 332 333 332 332 333 334 331 330 329 328 327 326 324 323 325 324 324 325 324 324 325
319 320 320 321 317 320 322 323 327 325 323 325 327 332 334 332 334 333 332 329 328 330 332 332 332 332 332 332 331 332 330 329 327 326 324 323 324 323 324 323 324 326 329
320 319 320 320 317 320 321 322 325 324 323 323 326 329 334 332 334 334 334 332 332 329 329 332 332 331 331 332 333 332 330 330 329 327 326 325 325 324 325 325 324 326 326
318 320 320 320 318 320 322 322 324 324 322 321 325 328 333 336 334 333 333 332 332 332 331 332 332 331 332 333 331 332 330 329 328 328 328 326 325 323 325 327 325 326 325
318 319 321 321 318 320 320 322 324 322 321 321 322 326 327 331 333 333 332 331 330 331 330 325 326 325 320 307 316 328 330 329 328 327 326 323 317 315 313 316 317 323 321
320 320 321 322 320 321 323 323 324 322 320 320 320 323 325 326 330 330 330 329 331 333 328 326 325 323 316 305 308 317 328 327 327 326 323 322 322 321 318 309 310 310 310
322 322 323 324 323 323 323 324 325 321 318 319 318 321 322 323 327 328 329 331 332 331 330 326 325 320 309 305 306 318 331 331 329 328 325 321 325 322 324 324 323 323 323
325 324 326 327 324 323 323 324 323 321 318 318 318 318 320 323 324 326 329 332 333 332 330 328 326 319 315 302 302 319 328 329 326 326 326 328 322 305 305 322 321 321 316
328 327 327 327 325 324 325 324 323 321 318 319 320 318 319 323 324 329 330 332 334 332 328 328 328 319 318 298 299 307 325 324 323 322 313 305 316 300 302 322 322 319 319
328 330 328 326 325 326 325 323 323 322 321 321 321 321 320 324 327 332 332 332 332 330 331 328 329 327 321 309 298 297 316 321 317 316 316 308 299 297 297 303 319 311 309
327 329 327 327 327 326 325 323 323 325 323 321 321 321 324 320 326 330 330 330 330 332 328 329 326 327 324 310 297 295 298 299 318 313 313 306 295 296 296 301 297 298 306
327 328 328 329 328 326 325 323 326 326 324 322 322 324 323 322 326 328 328 326 328 326 322 323 321 321 324 315 300 295 295 301 314 312 307 295 295 296 295 294 297 297 309
327 329 328 329 327 327 326 326 327 326 324 324 325 325 322 322 325 326 327 323 323 322 321 319 318 319 320 321 313 308 302 298 309 301 300 298 299 300 304 300 296 303 309
328 329 328 330 329 329 327 327 327 326 324 325 325 325 323 321 324 325 325 324 325 320 321 320 319 319 317 319 312 309 312 315 315 318 313 313 312 309 310 312 314 314 312
329 330 331 332 331 331 329 328 328 326 326 325 324 323 323 321 323 322 324 302 306 303 299 300 313 320 311 300 300 300 300 301 300 311 316 315 315 314 314 315 315 319 315
Wind_Speed
14 14 11 9 8 6 5 5 3 2 2 5 2 1 2 3 3 2 4 6 5 8 4 4 5 5 5 5 8 4 6 4 4 5 5 4 4 3 5 10 10 13 10
16 15 12 9 8 6 6 5 4 2 3 4 1 1 1 2 2 1 1 1 5 7 4 5 6 6 4 5 7 5 3 2 4 4 5 4 3 4 7 9 10 11 10
14 15 13 10 8 7 6 6 4 2 1 4 4 1 2 3 2 2 2 3 1 4 3 5 5 5 4 4 5 5 2 4 2 5 4 4 3 5 5 10 10 10 9
15 15 14 12 9 8 7 6 4 3 4 4 5 6 4 4 2 2 3 1 2 3 5 5 5 7 4 6 5 8 2 7 3 3 1 8 5 3 8 8 10 9 10
16 17 15 13 11 8 7 6 6 4 3 1 4 4 4 3 3 2 4 5 3 3 4 3 4 3 1 6 8 7 13 8 7 4 5 9 6 2 6 11 10 9 7
15 15 14 13 10 8 8 6 5 4 3 2 3 4 5 6 4 2 3 4 2 0 4 5 2 2 2 3 5 6 8 6 6 6 5 7 7 6 6 9 10 9 8
15 14 14 13 10 9 9 6 6 5 3 5 3 4 6 9 6 4 5 3 4 3 4 4 2 1 4 3 4 5 10 11 10 9 8 8 8 7 9 8 6 6 3
13 14 14 12 11 10 9 7 6 6 5 5 3 3 8 3 3 4 2 3 3 3 5 4 4 5 5 5 5 4 8 9 7 10 10 9 9 9 8 5 9 8 4
13 14 14 11 11 10 8 6 5 6 4 4 3 2 7 5 3 3 4 2 4 4 6 5 5 5 6 8 10 7 9 10 9 9 9 9 9 8 8 8 5 4 8
13 13 13 11 9 9 7 5 5 5 5 3 4 3 6 5 5 5 4 4 4 5 8 7 8 8 8 10 10 8 10 11 8 7 11 10 8 9 8 7 5 3 5
14 13 12 11 9 10 10 6 6 6 5 4 4 2 5 3 6 6 5 5 3 6 8 9 8 8 8 10 9 9 10 11 10 8 9 12 11 8 8 7 5 4 3
13 14 13 12 10 10 10 9 6 7 6 5 6 3 5 5 7 7 5 6 7 6 6 8 8 7 8 8 10 11 10 11 12 10 10 10 8 9 9 7 6 5 4
14 13 13 12 11 11 10 10 8 7 7 6 7 3 5 6 5 6 8 5 6 7 6 6 6 7 6 7 10 9 10 8 10 10 10 10 11 10 7 7 6 4 4
14 13 12 13 11 12 11 10 9 8 7 7 8 4 5 7 5 5 7 6 7 6 7 4 5 8 6 6 9 9 9 9 9 9 10 10 8 11 10 7 6 3 6
16 14 12 12 12 12 10 11 10 9 7 8 9 5 5 5 5 5 5 11 9 6 6 5 2 8 10 6 10 9 8 9 11 9 9 9 8 8 7 5 4 4 5
17 15 14 14 14 14 11 10 10 10 8 7 10 8 6 5 5 6 5 6 5 7 7 7 8 7 6 6 12 11 7 7 8 9 8 6 9 6 9 8 6 4 7
17 16 16 14 13 13 11 11 10 11 9 8 11 10 7 7 6 6 5 4 5 5 9 9 8 6 6 11 10 12 8 8 7 10 11 10 8 8 8 8 11 8 10
17 18 15 13 13 13 13 11 11 11 11 10 11 11 10 9 7 7 6 5 4 5 6 8 7 6 4 10 10 10 7 6 7 7 7 8 7 6 7 6 5 4 5
14 16 16 14 14 13 13 12 12 13 12 11 12 12 12 11 8 7 8 6 4 4 4 6 8 7 4 6 9 5 6 6 5 8 6 7 7 7 6 7 7 5 2
12 15 18 17 16 13 14 13 13 14 13 12 12 12 12 11 10 7 8 6 5 5 4 5 7 9 5 1 4 5 2 6 4 6 6 8 8 9 8 2 6 6 5
13 15 20 18 17 15 14 14 14 14 13 12 12 12 10 10 9 8 6 6 5 6 5 6 6 7 8 6 5 5 2 4 5 5 4 4 10 11 9 7 5 3 3
14 16 18 16 17 16 15 15 13 12 13 13 13 12 10 10 9 10 8 7 6 5 5 6 5 5 7 9 5 6 6 7 2 7 5 6 10 10 8 7 6 8 5
12 14 16 16 16 18 17 16 13 13 13 11 11 11 12 9 10 10 9 7 6 5 6 5 5 5 7 5 11 10 8 6 3 4 9 14 10 9 6 8 5 3 1
11 12 15 18 17 18 17 15 14 15 14 11 10 11 12 9 11 9 8 8 8 7 8 7 7 5 7 7 5 5 5 4 7 9 8 8 8 7 4 6 4 3 3
11 12 12 15 17 16 16 17 15 16 12 11 11 12 10 10 10 10 10 9 9 10 7 7 7 6 8 9 11 10 7 6 5 8 5 4 4 5 4 3 4 4 3
11 11 10 11 16 17 16 17 17 17 13 11 11 11 11 10 9 9 8 4 3 15 8 5 5 8 9 18 19 16 14 14 12 2 4 4 5 6 7 7 6 4 7
Wind_Direction
146 146 155 164 154 180 173 203 192 249 293 284 346 288 326 306 192 199 242 245 227 265 229 230 202 188 186 195 187 160 178 174 181 126 123 104 77 110 136 129 125 129 129
139 149 156 165 160 180 201 175 207 146 293 301 27 319 275 282 7 70 359 268 219 228 213 211 181 176 184 187 194 151 149 85 184 148 119 128 78 103 123 124 124 125 133
150 153 161 170 171 192 174 194 140 128 267 316 289 303 28 333 305 350 29 331 176 176 203 200 197 160 182 174 174 135 92 135 70 135 138 125 139 138 132 130 124 121 125
156 155 163 171 177 188 179 141 143 203 182 10 346 2 6 335 312 23 54 31 114 160 186 211 165 175 200 164 145 126 92 113 161 120 25 78 87 147 131 123 122 118 121
158 159 165 168 179 179 154 155 155 166 132 124 33 349 20 354 345 11 63 76 41 12 176 210 197 188 246 165 145 162 165 155 186 120 110 96 85 112 116 114 123 115 114
149 151 159 162 176 161 153 152 172 156 212 120 61 9 8 354 10 51 67 72 57 46 155 179 214 210 132 193 134 143 139 126 129 114 130 122 116 144 112 113 120 122 123
144 152 162 162 171 170 151 166 164 170 227 96 62 27 66 37 46 58 38 46 38 61 124 111 157 198 168 174 121 142 144 138 118 120 104 98 108 110 106 112 114 113 75
145 157 165 166 167 164 155 212 161 142 213 95 92 72 96 94 42 77 63 22 43 74 120 138 151 181 172 142 141 136 101 103 103 105 112 106 104 109 118 114 125 114 96
149 158 161 170 165 157 157 199 170 150 161 116 121 86 117 114 120 113 98 50 68 98 90 113 117 122 135 138 119 113 111 98 92 93 99 106 114 107 104 120 96 132 134
155 160 164 169 162 153 154 177 158 152 147 155 164 120 120 148 149 161 124 93 58 109 104 93 114 117 128 126 112 113 111 99 93 93 105 107 110 101 107 104 98 81 119
165 162 165 161 169 156 159 177 186 157 135 163 103 153 110 105 84 87 94 101 57 108 101 104 102 119 112 127 117 110 113 112 111 110 107 112 119 118 109 113 110 134 120
169 166 165 163 175 165 162 170 199 153 161 160 126 151 111 88 94 100 98 95 79 61 77 106 112 111 128 140 131 135 136 134 130 131 126 122 118 122 122 125 154 191 189
169 167 167 167 178 169 168 167 190 169 167 162 122 157 115 95 95 116 118 125 95 86 90 86 115 119 130 145 133 126 128 125 125 130 133 130 128 137 143 153 182 201 151
168 170 171 169 179 173 174 169 182 165 165 151 135 161 126 134 138 142 137 132 112 101 93 112 100 132 148 136 126 130 127 130 135 136 124 127 146 155 175 186 202 204 136
170 173 175 171 176 172 177 171 177 160 158 157 136 161 139 151 147 133 109 132 131 138 134 119 118 94 120 145 134 125 137 131 133 137 127 149 175 168 188 198 206 210 146
175 179 177 175 177 172 181 176 172 150 159 157 143 161 171 166 132 109 114 110 117 132 128 88 80 69 72 63 116 122 126 110 116 136 141 137 124 144 180 185 134 119 146
180 181 177 178 174 171 183 167 170 149 161 165 152 165 183 155 143 142 133 108 111 98 106 95 86 71 59 44 76 111 110 118 130 143 145 158 155 148 122 103 100 94 99
182 177 171 170 166 168 176 165 171 158 169 184 162 169 178 161 169 152 132 108 92 92 107 114 107 94 66 46 46 108 112 119 135 139 120 120 130 122 132 133 126 104 73
177 173 164 159 160 170 171 170 179 168 178 188 167 172 181 162 172 162 141 139 135 124 126 126 124 114 108 62 56 77 101 106 115 88 90 134 121 122 79 153 155 152 124
178 166 158 156 162 170 169 174 185 175 186 187 176 171 181 165 170 160 151 151 163 157 178 138 138 140 138 144 86 44 103 119 104 103 88 50 128 104 66 182 151 151 182
166 159 156 164 166 166 170 182 187 182 185 190 179 167 170 161 161 149 151 155 174 172 210 151 145 142 145 175 188 103 355 147 147 138 138 112 111 103 73 57 71 92 307
163 159 156 165 164 166 172 185 192 181 189 193 179 166 154 168 160 153 159 165 184 175 194 150 152 149 147 156 197 114 68 17 193 158 157 135 136 125 100 85 98 61 39
159 163 157 159 165 172 177 186 189 184 192 196 175 158 152 170 155 157 161 169 187 202 186 180 178 181 158 161 161 157 120 34 78 29 122 123 123 121 110 129 114 104 136
172 162 164 161 169 180 180 181 187 185 194 193 167 155 156 165 157 166 171 184 184 207 185 199 194 195 167 159 156 155 138 115 100 105 114 149 160 172 152 138 176 192 217
176 164 178 163 170 179 182 179 188 187 194 184 168 161 164 169 164 178 182 195 185 197 195 201 191 194 176 176 167 164 168 163 172 135 138 153 161 180 197 211 169 184 177
171 158 164 168 171 175 186 184 189 187 191 182 174 172 168 174 175 183 187 135 233 180 122 102 198 195 178 156 163 165 164 166 169 153 175 180 195 198 195 197 185 121 93